| time (UTC) | temp F | wind direction | speed knots | gust knots | rain 1hr in | rain 24hr in | rain mn in | humidity % | barometer mb |
| 20260503225311 | 58 | 15 | 0.0 | 7.8 | 0.00 | 0.00 | 0.00 | 46 | 1011.3 |
| 20260503222311 | 59 | 220 | 0.0 | 7.8 | 0.00 | 0.00 | 0.00 | 46 | 1011.4 |
| 20260503215340 | 59 | 180 | 2.6 | 5.2 | 0.00 | 0.00 | 0.00 | 43 | 1011.5 |
| 20260503212340 | 59 | 17 | 0.9 | 7.8 | 0.00 | 0.00 | 0.00 | 45 | 1011.4 |
| 20260503205340 | 60 | 180 | 2.6 | 7.0 | 0.00 | 0.00 | 0.00 | 43 | 1011.4 |
| 20260503202309 | 60 | 143 | 2.6 | 11.3 | 0.00 | 0.00 | 0.00 | 43 | 1011.7 |
| 20260503195339 | 60 | 125 | 4.3 | 7.0 | 0.00 | 0.00 | 0.00 | 41 | 1012.1 |
| 20260503192309 | 61 | 209 | 1.7 | 10.4 | 0.00 | 0.00 | 0.00 | 39 | 1012.6 |
| 20260503185338 | 61 | 255 | 1.7 | 8.7 | 0.00 | 0.00 | 0.00 | 40 | 1013.0 |
| 20260503182308 | 60 | 170 | 5.2 | 7.8 | 0.00 | 0.00 | 0.00 | 42 | 1013.3 |
| 20260503175337 | 60 | 302 | 0.9 | 7.0 | 0.00 | 0.00 | 0.00 | 42 | 1013.6 |
| 20260503172337 | 60 | 335 | 0.9 | 7.8 | 0.00 | 0.00 | 0.00 | 45 | 1014.1 |
| 20260503072328 | 35 | 344 | 0.0 | 0.0 | 0.00 | 0.02 | 0.00 | 90 | 1014.7 |
| 20260503052326 | 37 | 344 | 0.0 | 0.0 | 0.00 | 0.04 | 0.00 | 83 | 1015.2 |
| 20260503045326 | 38 | 344 | 0.0 | 0.0 | 0.00 | 0.04 | 0.00 | 81 | 1015.4 |
| 20260503035325 | 39 | 344 | 0.0 | 0.0 | 0.00 | 0.05 | 0.00 | 80 | 1015.4 |
| 20260503032325 | 40 | 344 | 0.0 | 0.0 | 0.00 | 0.05 | 0.05 | 84 | 1015.5 |
| 20260503025324 | 40 | 344 | 0.0 | 0.0 | 0.00 | 0.05 | 0.05 | 83 | 1015.6 |
| 20260503022324 | 40 | 344 | 0.0 | 0.0 | 0.00 | 0.05 | 0.05 | 81 | 1015.7 |
| 20260503015323 | 40 | 344 | 0.0 | 0.0 | 0.00 | 0.05 | 0.05 | 77 | 1015.7 |
| 20260503012323 | 40 | 344 | 0.0 | 0.0 | 0.00 | 0.05 | 0.05 | 76 | 1015.6 |
| 20260503005323 | 41 | 344 | 0.0 | 0.0 | 0.00 | 0.05 | 0.05 | 72 | 1015.6 |
| 20260503002322 | 42 | 344 | 0.0 | 0.0 | 0.00 | 0.05 | 0.05 | 72 | 1015.6 |
| 20260502235322 | 42 | 344 | 0.0 | 0.0 | 0.00 | 0.05 | 0.05 | 67 | 1015.6 |